Location: ???????????
(54.5822°N, 39.1075°E)
Time: 03:43:43
(UTC+00:00)

Cosmos 1707 - Pass Details

Date: 19 May 2025
Orbit: 423 x 430 km, 82.5° (Epoch: 15 June)

Event Time Altitude Azimuth Distance (km) Brightness Sun altitude
Exits shadow 21:21:10 27° 223° (SW) 873 3.4 -15.4°
Maximum altitude 21:22:42 50° 286° (WNW) 564 2.9 -15.4°
Drops below altitude 10° 21:26:00 10° 3° (N) 1,554 6.5 -15.4°
Sets 21:28:06 0° 9° (N) 2,429 8.0 -15.4°
